Date String (YYYY-MM-DD hh:mm:ss) UTC,Instrument flags,Ambient pressure (hPa),Sample flow (lpm),Bypass flow (lpm),Sample temperature (°C),Ambient temperature (°C),ASC tube jacket temperature (°C),LED temperature (°C),Box temperature (°C),Sample RH (%),Span deviation,Mass concentration (μg/m³),Mass concentration (μg/m³),Mass concentration (μg/m³)
DateTimeUTC,F1_M11,P_M11,Q1_M11,Q2_M11,T1_M11,T2_M11,T3_M11,T4_M11,T5_M11,U1_M11,ZSPAN_M11,X2_M11,X0_M11,X1_M11
2022-10-26 19:00:00,,0819.7,5.00,0.00,24.9,23.9,00.0,33.6,26.9,14.9,0000.0,0004.89,0013.69,0003.97
2022-10-26 19:01:00,,0819.6,5.00,0.00,24.9,23.9,00.0,33.6,26.9,14.9,0000.0,0004.92,0013.56,0004.01
2022-10-26 19:02:00,,0819.6,5.00,0.00,24.9,23.9,00.0,33.6,26.9,14.9,0000.0,0004.96,0014.07,0004.05
2022-10-26 19:03:00,,0819.6,5.00,0.00,25.0,23.9,00.0,33.7,26.9,14.9,0000.0,0005.01,0013.86,0004.09
2022-10-26 19:04:00,,0819.5,5.00,0.00,25.0,23.9,00.0,33.7,27.0,14.9,0000.0,0005.09,0014.45,0004.13
2022-10-26 19:05:00,,0819.5,5.00,0.00,25.0,23.9,00.0,33.7,27.0,14.9,0000.0,0005.13,0014.58,0004.17
2022-10-26 19:06:00,,0819.4,5.00,0.00,25.0,24.0,00.0,33.7,27.0,14.9,0000.0,0005.17,0014.63,0004.20
2022-10-26 19:07:00,,0819.4,5.00,0.00,25.1,24.0,00.0,33.7,27.0,15.0,0000.0,0005.20,0014.89,0004.23
2022-10-26 19:08:00,,0819.3,5.00,0.00,25.1,24.0,00.0,33.8,27.0,14.9,0000.0,0005.22,0015.25,0004.26
2022-10-26 19:09:00,,0819.4,5.00,0.00,25.1,24.0,00.0,33.8,27.0,15.0,0000.0,0005.20,0015.23,0004.27
2022-10-26 19:10:00,,0819.4,5.00,0.00,25.1,24.1,00.0,33.8,27.1,15.2,0000.0,0005.12,0014.70,0004.24
2022-10-26 19:11:00,,0819.4,5.00,0.00,25.1,24.1,00.0,33.8,27.1,15.0,0000.0,0005.03,0013.30,0004.21
2022-10-26 19:12:00,,0819.4,5.00,0.00,25.2,24.1,00.0,33.8,27.1,15.0,0000.0,0004.99,0012.93,0004.18
2022-10-26 19:13:00,,0819.3,4.99,0.00,25.2,24.1,00.0,33.9,27.2,15.0,0000.0,0004.97,0012.34,0004.16
2022-10-26 19:14:00,,0819.4,5.00,0.00,25.2,24.1,00.0,33.9,27.2,15.0,0000.0,0004.97,0012.28,0004.14
2022-10-26 19:15:00,,0819.4,5.00,0.00,25.2,24.1,00.0,33.9,27.2,15.0,0000.0,0004.91,0011.60,0004.12
2022-10-26 19:16:00,,0819.4,5.00,0.00,25.2,24.2,00.0,33.9,27.2,15.0,0000.0,0004.82,0011.32,0004.09
2022-10-26 19:17:00,,0819.2,5.01,0.00,25.2,24.2,00.0,33.9,27.2,14.9,0000.0,0004.75,0011.36,0004.07
2022-10-26 19:18:00,,0819.2,5.00,0.00,25.3,24.2,00.0,34.0,27.3,15.0,0000.0,0004.72,0011.12,0004.05
2022-10-26 19:19:00,,0819.2,4.99,0.00,25.3,24.2,00.0,34.0,27.3,15.0,0000.0,0004.70,0010.71,0004.03
2022-10-26 19:20:00,,0819.3,5.00,0.00,25.3,24.2,00.0,34.0,27.3,15.0,0000.0,0004.69,0010.54,0004.00
2022-10-26 19:21:00,,0819.3,5.01,0.00,25.3,24.2,00.0,34.0,27.3,15.1,0000.0,0004.75,0011.17,0004.01
2022-10-26 19:22:00,,0819.2,5.00,0.00,25.3,24.3,00.0,34.0,27.3,14.9,0000.0,0004.76,0011.15,0004.01
2022-10-26 19:23:00,,0819.2,5.01,0.00,25.4,24.3,00.0,34.1,27.3,14.9,0000.0,0004.72,0010.78,0004.01
2022-10-26 19:24:00,,0819.2,4.99,0.00,25.4,24.3,00.0,34.1,27.4,14.9,0000.0,0004.71,0011.64,0004.01
2022-10-26 19:25:00,,0819.2,5.00,0.00,25.4,24.3,00.0,34.1,27.4,14.9,0000.0,0004.69,0011.95,0004.00
2022-10-26 19:26:00,,0819.2,5.00,0.00,25.4,24.3,00.0,34.1,27.4,14.9,0000.0,0004.72,0011.96,0003.99
2022-10-26 19:27:00,,0819.2,5.00,0.00,25.4,24.4,00.0,34.1,27.4,14.9,0000.0,0004.76,0011.57,0004.00
2022-10-26 19:28:00,,0819.1,4.99,0.00,25.4,24.4,00.0,34.1,27.5,14.9,0000.0,0004.78,0011.70,0003.99
2022-10-26 19:29:00,,0819.1,5.00,0.00,25.5,24.4,00.0,34.2,27.5,14.8,0000.0,0004.80,0012.13,0004.00
2022-10-26 19:30:00,,0819.1,5.00,0.00,25.5,24.4,00.0,34.2,27.5,14.9,0000.0,0004.81,0012.63,0004.01
2022-10-26 19:31:00,,0819.1,5.00,0.00,25.5,24.4,00.0,34.2,27.5,14.8,0000.0,0004.83,0012.99,0004.02
2022-10-26 19:32:00,,0819.1,5.00,0.00,25.5,24.5,00.0,34.2,27.5,14.8,0000.0,0004.85,0012.98,0004.03
2022-10-26 19:33:00,,0819.1,5.00,0.00,25.5,24.5,00.0,34.2,27.5,14.8,0000.0,0004.80,0012.79,0004.02
2022-10-26 19:34:00,,0819.1,5.01,0.00,25.6,24.5,00.0,34.3,27.5,14.7,0000.0,0004.82,0013.32,0004.04
2022-10-26 19:35:00,,0819.1,5.00,0.00,25.6,24.5,00.0,34.3,27.6,14.8,0000.0,0004.84,0012.57,0004.05
2022-10-26 19:36:00,,0819.1,5.00,0.00,25.6,24.5,00.0,34.3,27.6,14.7,0000.0,0004.87,0013.04,0004.06
2022-10-26 19:37:00,,0819.0,5.00,0.00,25.6,24.5,00.0,34.3,27.6,14.6,0000.0,0004.90,0013.74,0004.09
2022-10-26 19:38:00,,0819.0,4.99,0.00,25.6,24.5,00.0,34.3,27.6,14.7,0000.0,0004.93,0013.97,0004.10
2022-10-26 19:39:00,,0819.0,5.00,0.00,25.7,24.5,00.0,34.3,27.7,14.7,0000.0,0004.94,0013.78,0004.11
2022-10-26 19:40:00,,0819.0,5.00,0.00,25.7,24.6,00.0,34.4,27.7,14.7,0000.0,0004.93,0013.60,0004.11
2022-10-26 19:41:00,,0818.9,5.00,0.00,25.7,24.6,00.0,34.4,27.7,14.6,0000.0,0004.93,0013.70,0004.12
2022-10-26 19:42:00,,0818.9,5.00,0.00,25.7,24.6,00.0,34.4,27.7,14.7,0000.0,0004.95,0012.90,0004.12
2022-10-26 19:43:00,,0819.0,5.00,0.00,25.7,24.6,00.0,34.4,27.8,14.6,0000.0,0004.93,0012.18,0004.11
2022-10-26 19:44:00,,0819.0,5.01,0.00,25.7,24.7,00.0,34.4,27.8,14.6,0000.0,0004.96,0012.73,0004.12
2022-10-26 19:45:00,,0819.0,5.00,0.00,25.8,24.7,00.0,34.5,27.8,14.5,0000.0,0004.96,0012.62,0004.12
2022-10-26 19:46:00,,0818.9,5.01,0.00,25.8,24.7,00.0,34.5,27.8,14.5,0000.0,0004.92,0012.40,0004.10
2022-10-26 19:47:00,,0818.9,5.01,0.00,25.8,24.7,00.0,34.5,27.8,14.5,0000.0,0004.88,0011.86,0004.08
2022-10-26 19:48:00,,0818.9,5.01,0.00,25.8,24.7,00.0,34.5,27.8,14.5,0000.0,0004.82,0010.62,0004.06
2022-10-26 19:49:00,,0818.9,4.99,0.00,25.8,24.8,00.0,34.5,27.8,14.5,0000.0,0004.72,0010.14,0004.03
2022-10-26 19:50:00,,0818.9,5.00,0.00,25.8,24.8,00.0,34.5,27.9,14.5,0000.0,0004.69,0010.72,0004.01
2022-10-26 19:51:00,,0818.9,5.00,0.00,25.9,24.8,00.0,34.6,27.9,14.5,0000.0,0004.68,0010.68,0004.01
2022-10-26 19:52:00,,0818.9,5.00,0.00,25.9,24.8,00.0,34.6,27.9,14.4,0000.0,0004.68,0010.36,0004.00
2022-10-26 19:53:00,,0818.9,5.00,0.00,25.9,24.8,00.0,34.6,27.9,14.4,0000.0,0004.66,0010.41,0003.99
2022-10-26 19:54:00,,0818.9,5.00,0.00,25.9,24.8,00.0,34.6,27.9,14.3,0000.0,0004.64,0010.84,0004.00
2022-10-26 19:55:00,,0818.8,5.01,0.00,25.9,24.8,00.0,34.6,27.9,14.4,0000.0,0004.61,0010.82,0004.00
2022-10-26 19:56:00,,0818.7,5.01,0.00,26.0,24.9,00.0,34.6,28.0,14.4,0000.0,0004.60,0010.50,0004.00
2022-10-26 19:57:00,,0818.7,5.01,0.00,26.0,24.9,00.0,34.6,28.0,14.3,0000.0,0004.63,0010.21,0004.01
2022-10-26 19:58:00,,0818.7,4.99,0.00,26.0,24.9,00.0,34.7,28.0,14.3,0000.0,0004.67,0010.38,0004.03
2022-10-26 19:59:00,,0818.7,5.00,0.00,26.0,24.9,00.0,34.7,28.0,14.4,0000.0,0004.70,0010.51,0004.05
